Location: Clarion
(42.7316°N, 93.7330°W)
Time: 01:55:48
(UTC+00:00)

CZ-4B R/B - Pass Details

Date: 22 April 2026
Orbit: 442 x 559 km, 97.8° (Epoch: 20 May)

Event Time Altitude Azimuth Distance (km) Brightness Sun altitude
Exits shadow 03:06:27 29° 46° (NE) 870 3.7 -20.4°
Drops below altitude 10° 03:08:50 10° 7° (N) 1,597 5.6 -20.7°
Sets 03:10:58 0° 357° (N) 2,463 6.8 -21.0°
